Location: Lancaster
(54.0470°N, 2.8020°W)
Time: 02:34:15
(UTC+01:00)

COSMOS 2428 - Visible Passes

Search period start: 25 July 2014 00:00
Search period end: 04 August 2014 00:00
Orbit: 847 x 855 km, 71.0° (Epoch: 24 July)

Date Brightness Start Highest point End Pass type
(mag) Time Alt. Az. Time Alt. Az. Time Alt. Az.
25 Jul 3.7 23:10:28 10° NW 23:15:44 40° WSW 23:20:41 11° S visible
26 Jul 3.7 22:58:17 10° NW 23:03:32 40° WSW 23:08:46 10° S visible
27 Jul 3.7 22:46:05 10° NW 22:51:20 40° WSW 22:56:34 10° S visible
28 Jul 3.8 22:33:53 10° NW 22:39:08 40° WSW 22:44:22 10° S visible
29 Jul 3.8 22:21:41 10° NW 22:26:56 40° WSW 22:32:10 10° S visible
30 Jul 3.8 22:09:29 10° NW 22:14:44 40° WSW 22:19:58 10° S visible
31 Jul 3.9 21:57:17 10° NW 22:02:32 40° WSW 22:07:46 10° S visible
01 Aug 3.9 21:45:05 10° NW 21:50:20 40° WSW 21:55:34 10° S visible
